EHI
4 4 4 2 0 0 0 0 0 0 0 0 0 0 0 0 0 0 0 0 0 0 0 0 0 0 0 0 0 0 0 0 0 0 0 0 0 0 0 0 0 0 0
9 5 4 3 1 0 0 0 0 0 0 0 0 0 0 0 0 0 0 0 0 0 0 0 0 0 0 0 0 0 0 0 0 0 0 0 0 0 0 0 0 0 0
8 4 3 4 2 0 0 0 0 0 0 0 0 0 0 0 0 0 0 0 0 0 0 0 0 0 0 0 0 0 0 0 0 0 0 0 0 0 0 0 0 0 0
3 1 3 7 5 1 0 0 0 0 0 0 0 0 0 0 0 0 0 0 0 0 0 0 0 0 0 0 0 0 0 0 0 0 0 0 0 0 0 0 0 0 0
1 0 7 15 12 3 0 0 0 0 0 0 0 0 0 0 0 0 0 0 0 0 0 0 0 0 0 0 0 0 0 0 0 0 0 0 0 0 0 0 0 0 0
2 1 12 25 20 6 1 0 0 0 0 0 0 0 0 0 0 0 0 0 0 0 0 0 0 0 0 0 0 0 0 0 0 0 0 0 0 0 0 0 0 0 0
3 1 13 28 22 7 2 0 0 0 0 0 0 0 0 0 0 0 0 0 0 0 0 0 0 0 0 0 0 0 0 0 0 0 0 0 0 0 0 0 0 0 0
2 1 9 19 16 6 2 0 0 0 0 0 0 0 0 0 0 0 0 0 0 0 0 0 0 0 0 0 0 0 0 0 0 0 0 0 0 0 0 0 0 0 0
1 0 3 6 5 2 1 0 0 0 0 0 0 0 0 0 0 0 0 0 0 0 0 0 0 0 0 0 0 0 0 0 0 0 0 0 0 0 0 0 0 0 0
0 0 0 0 0 0 0 0 0 0 0 0 0 0 0 0 0 0 0 0 0 0 0 0 0 0 0 0 0 0 0 0 0 0 0 0 0 0 0 0 0 0 0
0 0 0 0 0 0 0 0 0 0 0 0 0 0 0 0 0 0 0 0 0 0 0 0 0 0 0 0 0 0 0 0 0 0 0 0 0 0 0 0 0 0 0
0 0 0 0 0 0 0 0 0 0 0 0 0 0 0 0 0 0 0 0 0 0 0 0 0 0 0 0 0 0 0 0 0 0 0 0 0 0 0 0 0 0 0
0 0 0 0 0 0 0 0 0 0 0 0 0 0 0 0 0 0 0 0 0 0 0 0 0 0 0 0 0 0 0 0 0 0 0 0 0 0 0 0 0 0 0
0 0 0 1 0 0 0 0 0 0 0 0 0 0 0 0 0 0 0 0 0 0 0 0 0 0 0 0 0 0 0 0 0 0 0 0 0 0 0 0 0 0 0
0 0 0 0 0 0 0 0 0 0 0 0 0 0 0 0 0 0 0 0 0 0 0 0 0 0 0 0 0 0 0 0 0 0 0 0 0 0 0 0 0 0 0
0 0 0 0 0 0 0 0 0 0 0 0 0 0 0 0 0 0 0 0 0 0 0 0 0 0 0 0 0 0 0 0 0 0 0 0 0 0 0 0 0 0 0
0 0 0 0 0 0 0 0 0 0 0 0 0 0 0 0 0 0 0 0 0 0 0 0 0 0 0 0 0 0 0 0 0 0 0 0 0 0 0 0 0 0 0
0 0 0 0 0 0 0 1 1 1 0 0 1 0 0 0 0 0 0 0 0 0 0 0 0 0 0 0 0 0 0 0 0 0 0 0 0 0 0 0 0 0 0
0 0 0 0 1 0 1 4 6 5 2 2 2 2 1 0 0 0 0 0 0 0 0 0 0 0 0 0 0 0 0 0 0 0 0 0 0 0 0 0 0 0 0
0 0 0 0 0 0 4 11 15 13 9 7 5 3 2 1 0 0 0 0 0 0 0 0 0 0 0 0 0 0 0 0 0 0 0 0 0 0 0 0 0 0 0
0 0 0 0 0 0 4 12 19 20 17 13 9 5 3 2 1 1 1 0 0 0 0 0 0 0 0 0 0 0 0 0 0 0 0 0 0 0 0 0 0 0 0
0 0 0 0 0 0 2 7 13 17 16 14 12 8 4 2 1 1 0 0 0 0 0 0 0 0 0 0 0 0 0 0 0 0 0 0 0 0 0 0 0 0 0
0 0 0 0 0 0 0 2 5 8 9 9 10 8 4 2 1 0 0 0 0 0 0 0 0 0 0 0 0 0 0 0 0 0 0 0 0 0 0 0 0 0 0
0 0 0 0 0 0 0 0 1 2 2 3 4 4 3 3 3 2 1 0 0 0 0 0 0 0 0 0 0 0 0 0 0 0 0 0 0 0 0 0 0 0 0
0 0 0 0 0 0 0 0 0 0 0 0 0 0 1 2 4 4 3 1 1 0 0 0 0 0 0 0 0 0 0 0 0 0 0 0 0 0 0 0 0 0 0
0 0 0 0 0 0 0 0 0 0 0 0 0 0 0 1 2 3 3 2 2 1 0 0 0 0 0 0 0 0 0 0 0 0 0 0 0 0 0 0 0 0 0
Wind_Speed
10 13 15 15 15 14 13 13 13 13 13 13 13 12 11 10 8 7 7 7 8 10 12 14 15 15 15 15 14 14 13 13 13 14 13 13 12 12 12 12 11 8 11
14 15 15 14 14 14 13 14 13 13 13 13 13 12 10 9 8 7 8 9 11 13 15 15 15 14 14 14 14 13 12 10 10 10 10 10 10 11 12 13 13 7 11
16 15 14 14 13 13 14 14 14 14 14 13 12 11 10 9 9 9 10 12 14 15 15 15 15 14 14 13 13 11 9 7 5 2 1 5 7 10 10 10 10 10 10
16 13 13 14 13 14 15 15 14 14 14 12 11 10 9 9 10 12 13 15 15 16 15 15 14 13 13 12 11 10 7 4 4 5 2 6 6 9 9 9 9 9 9
13 12 15 14 14 15 16 15 14 14 13 12 11 10 9 10 12 13 14 15 15 14 14 13 13 12 11 11 10 7 4 5 7 4 6 7 6 9 11 11 11 10 10
13 13 13 14 14 15 15 14 14 14 13 12 11 10 10 11 13 14 14 14 13 13 13 12 11 11 10 9 8 5 3 5 6 4 7 7 6 12 14 15 15 15 15
14 14 12 14 14 14 14 14 13 13 13 12 11 11 10 11 12 12 12 12 12 12 11 11 10 9 8 7 6 4 4 7 1 6 7 7 8 14 15 16 16 16 16
15 13 12 13 13 13 13 13 13 13 13 12 11 11 11 11 11 10 10 10 11 11 10 10 9 8 7 6 5 3 5 7 4 8 8 6 10 14 15 15 15 15 15
14 13 10 9 10 11 11 11 12 13 12 12 11 10 10 10 10 9 9 9 10 10 9 9 8 7 6 6 4 1 4 6 3 4 8 5 11 14 13 13 13 13 13
11 12 10 9 8 7 7 9 10 12 12 11 11 10 10 9 9 8 8 7 8 9 9 8 8 7 6 5 3 0 4 6 1 6 5 6 12 12 12 12 12 12 12
8 10 9 9 9 9 9 9 9 10 11 11 9 11 10 6 6 6 7 8 7 8 8 8 8 7 6 5 3 2 3 3 2 6 5 10 11 11 10 10 10 11 11
4 6 7 7 8 8 8 8 6 6 7 7 6 7 5 5 6 8 11 10 7 7 7 8 8 7 5 3 3 3 2 3 3 6 6 12 11 10 10 10 10 10 10
2 1 3 4 5 5 5 7 4 5 6 6 8 9 6 5 4 6 5 5 5 6 5 6 5 4 4 4 4 3 2 1 2 5 6 12 11 10 9 9 9 9 9
7 5 2 2 3 3 4 4 5 5 6 5 6 9 6 4 4 5 5 6 5 4 5 5 4 6 5 4 4 4 2 0 2 5 6 11 11 10 9 9 8 8 9
9 8 6 5 4 3 3 3 3 4 5 6 6 6 7 4 4 4 5 6 6 5 6 6 5 5 5 5 4 4 4 4 4 6 5 10 11 10 10 9 9 9 9
8 10 9 8 7 5 4 3 3 3 4 5 5 6 7 5 5 4 5 5 6 5 5 6 6 5 4 4 4 4 4 4 4 7 6 7 10 11 10 10 9 9 9
6 9 10 10 9 8 7 6 4 3 3 3 4 6 7 6 5 5 4 4 5 5 6 5 6 4 4 4 4 4 3 3 4 7 8 5 6 8 10 11 10 10 9
2 4 8 8 9 9 8 8 5 4 4 3 3 5 7 8 7 5 5 4 5 4 4 4 4 4 4 4 4 4 3 3 3 5 7 7 6 5 7 11 11 11 10
2 2 4 6 7 7 8 7 7 6 5 4 3 4 5 7 8 6 5 5 5 4 4 5 4 4 4 4 4 4 4 4 4 4 6 8 7 7 5 9 11 11 11
2 2 2 2 4 5 5 5 5 5 5 5 4 5 6 6 7 7 6 7 6 5 5 5 5 5 4 5 4 3 3 4 4 4 5 5 6 8 8 7 6 7 11
3 3 3 3 3 2 2 3 4 5 5 5 6 7 7 7 7 7 6 7 7 7 7 7 5 6 5 4 3 1 2 3 4 5 4 4 6 7 8 9 7 5 5
4 4 4 4 4 4 2 2 2 3 4 6 6 8 10 9 8 6 7 6 7 7 8 9 7 5 5 6 5 4 3 4 5 5 5 5 7 6 7 10 9 8 7
5 6 5 5 5 5 5 3 3 2 2 3 4 6 9 10 10 9 8 7 7 7 7 9 9 9 7 6 5 6 6 7 4 4 7 6 6 6 6 7 9 8 9
4 4 5 5 5 5 4 3 4 3 4 5 4 4 6 9 10 11 10 9 8 7 7 8 9 8 7 6 5 5 4 4 5 3 3 5 6 7 8 7 7 7 8
3 3 4 5 4 4 4 4 4 4 4 4 4 5 5 6 8 10 11 10 10 8 8 8 8 9 8 7 6 4 4 2 2 4 4 4 4 5 6 6 6 6 7
2 2 3 4 4 4 4 4 4 5 5 6 6 6 5 4 4 7 9 10 10 10 10 10 9 10 9 8 7 6 5 4 5 4 3 3 3 3 3 3 5 5 5
Wind_Direction
123 133 141 140 141 138 135 132 127 124 122 117 111 104 96 88 81 79 83 90 94 101 100 95 89 85 83 82 81 80 80 82 86 85 80 72 69 68 56 46 73 62 64
127 134 138 138 141 140 136 129 122 118 115 113 108 103 95 87 81 85 92 99 101 101 100 94 89 87 85 84 82 82 84 92 98 99 98 82 70 66 60 55 59 62 63
125 133 136 136 138 139 133 127 123 120 116 112 109 104 98 91 86 88 98 101 102 101 99 94 91 89 87 84 82 81 84 88 83 77 144 109 82 68 64 60 60 60 62
125 137 136 134 137 137 132 129 126 122 118 115 113 109 106 98 90 91 98 98 99 98 97 96 94 91 89 86 83 81 78 55 7 332 64 90 78 69 66 63 63 62 60
128 132 127 133 133 133 132 131 128 125 122 119 116 114 112 105 95 93 96 97 98 98 99 98 97 94 91 89 86 82 57 4 341 353 73 77 71 70 70 69 66 66 66
123 118 128 128 130 132 133 132 131 129 126 124 122 120 119 110 99 96 98 100 102 102 103 102 100 97 93 92 89 78 19 347 335 54 68 75 73 78 78 75 72 70 69
121 121 129 128 131 134 136 136 137 134 131 130 128 127 124 116 106 104 105 107 108 108 107 106 103 99 95 93 90 65 350 336 351 81 78 76 80 83 79 76 73 69 67
117 123 128 128 130 134 138 140 142 139 137 136 134 132 128 123 120 119 118 117 117 116 113 110 106 100 96 94 88 48 339 335 31 84 83 80 87 85 81 77 73 71 68
120 125 133 133 130 131 137 143 146 144 143 142 140 133 127 127 132 133 131 131 129 125 121 118 113 108 103 101 96 42 324 331 349 87 93 85 91 88 83 79 75 72 70
124 132 143 148 147 146 144 146 149 149 150 149 143 135 132 135 142 145 146 143 139 136 134 130 125 121 116 114 114 39 305 319 322 97 97 99 96 91 86 82 78 76 75
129 138 152 159 158 160 162 157 150 154 156 153 147 147 147 159 160 166 162 148 149 149 149 145 142 138 133 134 150 221 282 277 108 97 101 109 103 98 92 88 85 83 81
136 142 152 158 156 164 159 150 165 168 164 171 165 164 184 193 179 171 152 156 163 164 162 162 160 161 163 166 186 216 256 254 116 113 122 122 115 109 103 99 96 91 88
174 157 145 153 155 158 137 156 173 173 171 194 180 176 199 209 165 140 147 156 168 172 173 168 173 201 209 175 177 207 235 289 101 120 133 131 128 123 118 113 108 103 97
178 186 209 178 163 166 151 171 173 173 172 187 194 181 191 200 172 158 165 170 180 185 186 174 198 211 208 169 187 200 163 244 112 119 136 137 139 138 135 131 125 118 110
170 174 189 201 194 194 179 189 189 184 175 183 190 188 188 192 180 179 180 174 184 184 185 181 203 198 188 188 197 188 176 201 149 131 139 145 147 149 150 147 144 135 125
172 174 180 194 198 193 198 209 215 209 185 184 179 188 196 195 185 189 191 184 186 186 180 180 197 193 181 178 186 194 202 192 158 139 144 148 154 158 162 163 159 151 141
183 177 179 188 195 193 197 203 216 224 211 199 185 188 198 204 194 193 197 196 190 187 183 181 195 189 176 171 181 195 203 197 168 146 151 152 155 165 172 174 169 164 156
215 185 182 187 190 195 196 195 202 212 218 211 205 194 200 205 202 197 197 205 194 188 186 184 189 180 173 168 177 194 192 184 183 164 157 158 160 166 179 182 176 173 167
237 241 203 189 191 198 199 193 194 198 208 211 214 216 210 209 207 200 200 200 195 193 193 190 186 175 175 180 186 187 185 179 195 185 167 165 165 165 168 182 175 174 174
343 325 302 230 204 209 205 196 194 198 202 203 211 223 228 222 214 206 202 203 195 192 197 193 187 185 180 178 184 180 189 186 191 195 187 173 166 166 166 166 162 172 178
353 335 320 311 289 252 219 204 200 204 206 206 210 216 225 233 229 217 210 204 201 200 199 194 182 191 193 158 137 169 252 221 207 201 194 182 176 173 166 167 169 169 182
14 10 349 336 327 320 302 260 222 214 213 211 210 212 216 222 230 232 223 216 208 204 199 197 193 185 188 168 149 137 207 252 250 216 197 196 186 178 180 178 178 175 178
34 18 351 341 333 327 330 330 320 302 269 242 226 216 214 214 218 225 232 229 221 212 210 205 200 192 195 194 178 165 174 206 209 222 213 201 191 185 188 183 184 178 174
44 18 344 333 325 321 325 314 296 278 265 254 248 233 221 213 212 214 220 225 227 223 220 215 209 203 188 195 216 227 209 162 160 197 234 212 199 193 190 192 189 180 171
51 13 337 324 318 320 317 305 290 279 276 283 286 272 252 230 218 213 212 215 220 224 225 223 217 210 203 195 196 207 235 258 185 151 197 211 211 208 194 188 181 176 167
51 11 338 328 329 331 323 310 290 279 282 291 293 290 283 268 242 222 214 214 216 218 221 223 222 218 212 206 199 194 189 199 208 190 173 177 203 213 188 175 176 168 161